This demonstration page uses our WeatherBlox Daily Observations layout. Learn more.

Left ArrowRight Arrow

Hourly Observations for April 9, 2015

Temp ( °F °C ) Dew Point ( °F °C ) Humidity (%) Winds ( mph kmh ) Pressure ( in mb ) Visibility ( mi km ) Precip ( " mm )
12:16 am 00:16 Clear 61 16 N/A N/A Calm 29.94 1014 7 11.26538 N/A
12:35 am 00:35 Clear 61 16 N/A N/A Calm 29.97 1015 7 11.26538 N/A
12:56 am 00:56 Clear 59 15 N/A N/A Calm 29.94 1014 5 8.0467 N/A
1:16 am 01:16 Clear 61 16 N/A N/A SE 5 7 29.94 1014 5 8.0467 N/A
1:35 am 01:35 Clear 61 16 N/A N/A SSE 5 7 29.94 1014 7 11.26538 N/A
1:56 am 01:56 Clear 61 16 N/A N/A SSE 7 11 29.91 1013 7 11.26538 N/A
2:16 am 02:16 Partly Cloudy 63 17 N/A N/A SSE 8 13 29.91 1013 7 11.26538 N/A
2:35 am 02:35 Partly Cloudy 63 17 N/A N/A SSE 9 15 29.88 1012 10 16.0934 N/A
2:56 am 02:56 Clear 63 17 N/A N/A S 6 9 29.88 1012 10 16.0934 N/A
3:16 am 03:16 Clear 63 17 N/A N/A S 5 7 29.85 1011 10 16.0934 N/A
3:35 am 03:35 Clear 61 16 N/A N/A SSE 8 13 29.85 1011 7 11.26538 N/A
3:56 am 03:56 Clear 63 17 N/A N/A S 8 13 29.85 1011 10 16.0934 N/A
4:16 am 04:16 Clear 63 17 N/A N/A S 3 6 29.85 1011 10 16.0934 N/A
4:35 am 04:35 Clear 63 17 N/A N/A S 6 9 29.83 1010 10 16.0934 N/A
4:56 am 04:56 Clear 61 16 N/A N/A SSE 5 7 29.83 1010 10 16.0934 N/A
5:16 am 05:16 Clear 63 17 N/A N/A S 5 7 29.83 1010 10 16.0934 N/A
5:35 am 05:35 Clear 63 17 N/A N/A SSW 12 19 29.83 1010 10 16.0934 N/A
5:56 am 05:56 Clear 63 17 N/A N/A SSW 14 22 29.83 1010 10 16.0934 N/A
6:16 am 06:16 Clear 63 17 N/A N/A S 13 20 29.85 1011 7 11.26538 N/A
6:35 am 06:35 Clear 63 17 N/A N/A S 14 22 29.83 1010 7 11.26538 N/A
6:56 am 06:56 Clear 63 17 N/A N/A S 14 22 29.85 1011 10 16.0934 N/A
7:16 am 07:16 Sunny 63 17 N/A N/A S 9 15 29.83 1010 7 11.26538 N/A
7:35 am 07:35 Sunny 63 17 N/A N/A S 10 17 29.83 1010 10 16.0934 N/A
7:56 am 07:56 Sunny 63 17 N/A N/A SSW 13 20 29.85 1011 10 16.0934 N/A
8:16 am 08:16 Sunny 64 18 N/A N/A SSW 14 22 29.85 1011 10 16.0934 N/A
8:35 am 08:35 Mostly Cloudy 64 18 N/A N/A S 10 17 29.88 1012 7 11.26538 N/A
8:56 am 08:56 Partly Cloudy 64 18 N/A N/A SSW 9 15 29.85 1011 10 16.0934 N/A
9:16 am 09:16 Partly Cloudy 64 18 N/A N/A S 12 19 29.88 1012 10 16.0934 N/A
9:36 am 09:36 Partly Cloudy 64 18 N/A N/A SSW 9 15 29.88 1012 10 16.0934 N/A
9:56 am 09:56 Cloudy 64 18 N/A N/A S 8 13 29.85 1011 7 11.26538 N/A
10:15 am 10:15 Cloudy 64 18 N/A N/A S 8 13 29.85 1011 7 11.26538 N/A
10:36 am 10:36 Cloudy 64 18 N/A N/A S 8 13 29.85 1011 5 8.0467 N/A
10:56 am 10:56 Cloudy 63 17 N/A N/A S 7 11 29.88 1012 5 8.0467 N/A
11:15 am 11:15 Cloudy 63 17 N/A N/A S 7 11 29.88 1012 5 8.0467 N/A
11:36 am 11:36 Mostly Cloudy 64 18 N/A N/A S 9 15 29.88 1012 7 11.26538 N/A
11:56 am 11:56 Partly Cloudy 64 18 N/A N/A SSW 7 11 29.88 1012 7 11.26538 N/A
12:15 pm 12:15 Mostly Cloudy 64 18 N/A N/A SSW 7 11 29.88 1012 7 11.26538 N/A
12:36 pm 12:36 Mostly Cloudy 68 20 N/A N/A SSW 9 15 29.83 1010 10 16.0934 N/A
12:55 pm 12:55 Partly Cloudy 70 21 N/A N/A SSW 9 15 29.8 1009 10 16.0934 N/A
1:16 pm 13:16 Sunny 73 23 59 15 61 61 SW 18 30 29.77 1008 10 16.0934 N/A
1:36 pm 13:36 Partly Cloudy 73 23 55 13 53 53 SSW 21 33 29.77 1008 10 16.0934 N/A
1:55 pm 13:55 Partly Cloudy 73 23 54 12 50 50 SW 26 43 29.74 1007 10 16.0934 N/A
2:16 pm 14:16 Partly Cloudy 75 24 52 11 44 44 SW 25 41 29.74 1007 10 16.0934 N/A
2:36 pm 14:36 Sunny 75 24 50 10 41 41 WSW 22 35 29.74 1007 10 16.0934 N/A
2:55 pm 14:55 Sunny 77 25 48 9 36 36 SW 20 31 29.74 1007 10 16.0934 N/A
3:16 pm 15:16 Sunny 75 24 46 8 36 36 SSW 23 37 29.74 1007 10 16.0934 N/A
3:35 pm 15:35 Sunny 75 24 48 9 39 39 SW 18 30 29.74 1007 10 16.0934 N/A
3:56 pm 15:56 Sunny 77 25 48 9 36 36 SSW 18 30 29.74 1007 10 16.0934 N/A
4:16 pm 16:16 Sunny 79 26 48 9 34 34 SSW 15 24 29.71 1006 10 16.0934 N/A
4:35 pm 16:35 Sunny 79 26 50 10 37 37 SSW 17 28 29.71 1006 10 16.0934 N/A
4:56 pm 16:56 Sunny 79 26 46 8 32 32 SW 20 31 29.71 1006 10 16.0934 N/A
5:16 pm 17:16 Sunny 77 25 45 7 32 32 SSW 25 41 29.71 1006 10 16.0934 N/A
5:35 pm 17:35 Sunny 77 25 46 8 34 34 SW 22 35 29.68 1005 10 16.0934 N/A
5:56 pm 17:56 Sunny 77 25 46 8 34 34 SSW 16 26 29.68 1005 10 16.0934 N/A
6:15 pm 18:15 Sunny 77 25 48 9 36 36 SSW 17 28 29.68 1005 10 16.0934 N/A
6:36 pm 18:36 Sunny 75 24 50 10 41 41 SSW 18 30 29.68 1005 10 16.0934 N/A
6:56 pm 18:56 Sunny 75 24 50 10 41 41 SSW 17 28 29.68 1005 10 16.0934 N/A
7:15 pm 19:15 Sunny 75 24 48 9 39 39 SSW 17 28 29.68 1005 10 16.0934 N/A
7:36 pm 19:36 Sunny 75 24 46 8 36 36 SW 21 33 29.71 1006 10 16.0934 N/A
7:56 pm 19:56 Sunny 73 23 46 8 38 38 SW 15 24 29.71 1006 10 16.0934 N/A
8:15 pm 20:15 Sunny 73 23 46 8 38 38 SW 15 24 29.71 1006 10 16.0934 N/A
8:36 pm 20:36 Clear 73 23 46 8 38 38 SW 13 20 29.71 1006 10 16.0934 N/A
8:55 pm 20:55 Partly Cloudy 73 23 48 9 41 41 SSW 12 19 29.71 1006 10 16.0934 N/A
9:16 pm 21:16 Partly Cloudy 72 22 48 9 44 44 S 8 13 29.68 1005 10 16.0934 N/A
9:36 pm 21:36 Partly Cloudy 72 22 50 10 47 47 S 10 17 29.68 1005 10 16.0934 N/A
9:55 pm 21:55 Partly Cloudy 72 22 50 10 47 47 S 12 19 29.68 1005 10 16.0934 N/A
10:16 pm 22:16 Clear 72 22 50 10 47 47 S 12 19 29.68 1005 10 16.0934 N/A
10:36 pm 22:36 Clear 70 21 50 10 50 50 S 13 20 29.68 1005 10 16.0934 N/A
10:56 pm 22:56 Clear 70 21 50 10 50 50 S 13 20 29.65 1004 10 16.0934 N/A
11:16 pm 23:16 Clear 70 21 50 10 50 50 S 13 20 29.65 1004 10 16.0934 N/A
11:36 pm 23:36 Clear 70 21 50 10 50 50 S 12 19 29.65 1004 10 16.0934 N/A
11:56 pm 23:56 Clear 70 21 50 10 50 50 S 14 22 29.65 1004 10 16.0934 N/A

Powered by AerisWeather